Charlottesville, VA

11:18 PM EDT on October 23, 2019 (GMT -0400)
Charlottesville-Albemarle

Weather History for KCHO - August, 2019

Change the Weather History Date:

Saturday, August 31, 2019

  Actual Average Record
Temperature  
Mean Temperature 77 °F 72 °F  
Max Temperature 90 °F 83 °F 100 °F (1953)
Min Temperature 64 °F 61 °F 51 °F (1976)
Degree Days  
Heating Degree Days 0 0  
Month to date heating degree days 0 0  
Since 1 June heating degree days 0 14  
Since 1 July heating degree days 0 3  
Cooling Degree Days 12 7  
Month to date cooling degree days 389 280  
Year to date cooling degree days 1457 910  
Since 1 June cooling degree days 1171 824  
Growing Degree Days 27 (Base 50)    
Moisture  
Dew Point 65 °F    
Average Humidity 67    
Maximum Humidity 87    
Minimum Humidity 46    
Precipitation  
Precipitation 0.00 in 0.07 in 0.63 in (2006)
Month to date precipitation 2.65 3.62  
Year to date precipitation 27.95 28.14  
Sea Level Pressure  
Sea Level Pressure 30.16 in    
Wind  
Wind Speed 3 mph ()    
Max Wind Speed 14 mph    
Max Gust Speed 19 mph    
Visibility 10.0 miles    
Events      
T = Trace of Precipitation, MM = Missing Value Source: Averaged Metar Reports

Daily Weather History Graph

Daily Weather History Graph

Search for Another Location

Airport or City:

Astronomy

Aug. 31, 2019 Rise Set
Actual Time 6:42 AM EDT 7:45 PM EDT
Civil Twilight 6:15 AM EDT 8:12 PM EDT
Nautical Twilight 5:43 AM EDT 8:44 PM EDT
Astronomical Twilight 5:09 AM EDT 9:17 PM EDT
Moon 7:55 AM EDT (8/31) 8:58 PM EDT (8/31)
Length of Visible Light 13h 56m
Length of Day
13h 02m
New Moon, 2% of the Moon is Illuminated
Aug 31
New Moon
Sep 5
First Quarter
Sep 14
Full
Sep 21
Last Quarter
Sep 28
New

Hourly Weather History & Observations

Time (EDT) Temp. Heat Index Dew Point Humidity Pressure Visibility Wind Dir Wind Speed Gust Speed Precip Events Conditions
12:53 AM 71.1 °F - 64.9 °F 81% 30.12 in 10.0 mi Calm Calm - N/A   Clear
1:53 AM 68.0 °F - 64.0 °F 87% 30.12 in 10.0 mi Calm Calm - N/A   Clear
2:53 AM 68.0 °F - 63.0 °F 84% 30.11 in 10.0 mi West 4.6 mph - N/A   Clear
3:53 AM 66.0 °F - 62.1 °F 87% 30.11 in 10.0 mi South 4.6 mph - N/A   Clear
4:53 AM 66.9 °F - 63.0 °F 87% 30.12 in 10.0 mi Calm Calm - N/A   Clear
5:53 AM 64.9 °F - 61.0 °F 87% 30.14 in 10.0 mi Calm Calm - N/A   Clear
6:53 AM 64.9 °F - 61.0 °F 87% 30.15 in 9.0 mi Calm Calm - N/A   Clear
7:53 AM 69.1 °F - 63.0 °F 81% 30.17 in 10.0 mi Calm Calm - N/A   Clear
8:53 AM 75.0 °F - 64.9 °F 71% 30.17 in 10.0 mi Calm Calm - N/A   Clear
9:53 AM 80.1 °F 82.1 °F 66.0 °F 62% 30.18 in 10.0 mi Calm Calm - N/A   Clear
10:53 AM 84.0 °F 86.5 °F 66.9 °F 56% 30.19 in 10.0 mi ENE 5.8 mph - N/A   Clear
11:53 AM 87.1 °F 89.9 °F 66.9 °F 51% 30.18 in 10.0 mi NE 9.2 mph - N/A   Clear
12:53 PM 88.0 °F 92.1 °F 69.1 °F 53% 30.18 in 10.0 mi ENE 10.4 mph - N/A   Clear
1:53 PM 87.1 °F 89.9 °F 66.9 °F 51% 30.18 in 10.0 mi East 6.9 mph - N/A   Scattered Clouds
2:53 PM 88.0 °F 90.7 °F 66.9 °F 49% 30.17 in 10.0 mi ESE 5.8 mph - N/A   Scattered Clouds
3:53 PM 90.0 °F 92.8 °F 66.9 °F 46% 30.16 in 10.0 mi Variable 5.8 mph - N/A   Clear
4:53 PM 89.1 °F 91.3 °F 66.0 °F 46% 30.15 in 10.0 mi ENE 8.1 mph - N/A   Clear
5:53 PM 87.1 °F 89.2 °F 66.0 °F 49% 30.14 in 10.0 mi NE 9.2 mph - N/A   Clear
6:53 PM 82.9 °F 85.4 °F 66.9 °F 58% 30.15 in 10.0 mi NNE 3.5 mph - N/A   Clear
7:53 PM 80.1 °F 82.3 °F 66.9 °F 64% 30.17 in 10.0 mi NNE 3.5 mph - N/A   Scattered Clouds
8:53 PM 79.0 °F - 68.0 °F 69% 30.17 in 10.0 mi North 8.1 mph - N/A   Clear
9:53 PM 79.0 °F - 64.9 °F 62% 30.19 in 10.0 mi NE 8.1 mph - N/A   Partly Cloudy
10:53 PM 78.1 °F - 64.9 °F 64% 30.21 in 10.0 mi NE 6.9 mph - N/A   Mostly Cloudy
11:53 PM 77.0 °F - 64.0 °F 64% 30.21 in 10.0 mi NE 9.2 mph - N/A   Clear